Phoenix Deer Valley, AZ

10:46 PM MST on October 17, 2017 (GMT -0700)
Phoenix-Deer Valley Municipal

Weather History for KDVT - May, 2013

Change the Weather History Date:

Thursday, May 2, 2013

  Actual Average Record
Temperature  
Mean Temperature 78 °F -  
Max Temperature 91 °F 85 °F 93 °F (2001)
Min Temperature 66 °F 60 °F 53 °F (1999)
Cooling Degree Days 14    
Growing Degree Days 28 (Base 50)    
Moisture  
Dew Point 3 °F    
Average Humidity 5    
Maximum Humidity 8    
Minimum Humidity 4    
Precipitation  
Precipitation 0.00 in - - ()
Sea Level Pressure  
Sea Level Pressure 30.00 in    
Wind  
Wind Speed 11 mph (NNE)    
Max Wind Speed 17 mph    
Max Gust Speed 22 mph    
Visibility 10 miles    
Events      
Averages and records for this station are not official NWS values.
T = Trace of Precipitation, MM = Missing Value Source: NWS Daily Summary

Daily Weather History Graph

Daily Weather History Graph

Search for Another Location

Airport or City:

Trip Planner

Search our weather history database for the weather conditions in past years. The results will help you decide how hot, cold, wet, or windy it might be!

Date:

Astronomy

May. 02, 2013 Rise Set
Actual Time 5:38 AM MST 7:12 PM MST
Civil Twilight 5:11 AM MST 7:39 PM MST
Nautical Twilight 4:39 AM MST 8:11 PM MST
Astronomical Twilight 4:06 AM MST 8:45 PM MST
Moon 1:06 AM MST (5/2) 12:26 PM MST (5/2)
Length of Visible Light 14h 27m
Length of Day
13h 34m
Waning Gibbous, 46% of the Moon is Illuminated
May 2
Waning Gibbous
May 9
New
May 17
First Quarter
May 24
Full
May 31
Last Quarter

Hourly Weather History & Observations

Time (MST) Temp. Dew Point Humidity Pressure Visibility Wind Dir Wind Speed Gust Speed Precip Events Conditions
12:53 AM 75.0 °F -0.0 °F 5% 29.91 in 10.0 mi North 17.3 mph - N/A   Clear
1:53 AM 73.0 °F 1.9 °F 6% 29.94 in 10.0 mi North 16.1 mph - N/A   Clear
2:53 AM 71.1 °F 1.0 °F 6% 29.97 in 10.0 mi North 15.0 mph - N/A   Clear
3:53 AM 70.0 °F -0.0 °F 6% 29.99 in 10.0 mi North 9.2 mph - N/A   Clear
4:53 AM 66.9 °F 1.0 °F 7% 30.01 in 10.0 mi North 3.5 mph - N/A   Clear
5:53 AM 66.0 °F 3.0 °F 8% 30.04 in 10.0 mi North 6.9 mph - N/A   Clear
6:53 AM 71.1 °F 3.0 °F 7% 30.07 in 10.0 mi NNE 9.2 mph 18.4 mph N/A   Clear
7:53 AM 73.0 °F 3.9 °F 7% 30.09 in 10.0 mi NNE 12.7 mph 21.9 mph N/A   Clear
8:53 AM 75.9 °F 6.1 °F 7% 30.11 in 10.0 mi NNE 11.5 mph - N/A   Clear
9:53 AM 78.1 °F 7.0 °F 7% 30.11 in 10.0 mi NNE 8.1 mph - N/A   Clear
10:53 AM 82.0 °F 7.0 °F 6% 30.09 in 10.0 mi ENE 11.5 mph 21.9 mph N/A   Clear
11:53 AM 84.0 °F 7.0 °F 5% 30.06 in 10.0 mi NE 11.5 mph 18.4 mph N/A   Clear
12:53 PM 84.9 °F 6.1 °F 5% 30.04 in 10.0 mi ENE 6.9 mph 18.4 mph N/A   Clear
1:53 PM 87.1 °F 5.0 °F 4% 30.02 in 10.0 mi NE 5.8 mph 18.4 mph N/A   Clear
2:53 PM 90.0 °F 6.1 °F 4% 29.99 in 10.0 mi NNE 8.1 mph 16.1 mph N/A   Clear
3:53 PM 89.1 °F 3.9 °F 4% 29.96 in 10.0 mi East 12.7 mph 19.6 mph N/A   Clear
4:53 PM 91.0 °F 5.0 °F 4% 29.94 in 10.0 mi NNE 10.4 mph - N/A   Clear
5:53 PM 90.0 °F 5.0 °F 4% 29.94 in 10.0 mi NNE 10.4 mph 17.3 mph N/A   Clear
6:53 PM 88.0 °F 3.0 °F 4% 29.93 in 10.0 mi ENE 9.2 mph - N/A   Clear
7:53 PM 84.9 °F 1.9 °F 4% 29.95 in 10.0 mi NE 9.2 mph - N/A   Clear
8:53 PM 79.0 °F 1.9 °F 5% 29.96 in 10.0 mi NNE 11.5 mph - N/A   Clear
9:53 PM 79.0 °F -0.9 °F 4% 29.96 in 10.0 mi NNE 11.5 mph - N/A   Clear
10:53 PM 75.9 °F -0.9 °F 5% 29.96 in 10.0 mi ENE 4.6 mph - N/A   Clear
11:53 PM 75.0 °F -0.9 °F 5% 29.98 in 10.0 mi ENE 4.6 mph - N/A   Clear